CFS7284 KLBB-KAFW

Flight info

Callsign CFS7284
Flight time 1h 8m
Altitude 19000
Route DCT CDS DCT SPS MOTZA1
Aircraft AT73/M-SDFGIRY/S

Departure

Time 2026-04-20 23:15
Airport Lubbock Preston Smith International Airport (KLBB)

Arrival

Time 2026-04-21 00:24
Airport Perot Field/Fort Worth Alliance Airport (KAFW)
Time Latitude Longitude Altitude Speed Heading
2026-04-20 22:53 33.67275 -101.83349 3265 ft 0 kts 270°
2026-04-20 23:04 33.67275 -101.83336 3261 ft 3 kts 292°
2026-04-20 23:04 33.67271 -101.83327 3262 ft 3 kts
2026-04-20 23:04 33.67252 -101.83329 3263 ft 2 kts
2026-04-20 23:05 33.67245 -101.83329 3263 ft 0 kts 360°
2026-04-20 23:08 33.67247 -101.83329 3262 ft 0 kts
2026-04-20 23:08 33.67248 -101.83329 3262 ft 2 kts
2026-04-20 23:09 33.67269 -101.83328 3262 ft 1 kts 20°
2026-04-20 23:09 33.67302 -101.83284 3264 ft 11 kts 41°
2026-04-20 23:09 33.67373 -101.83269 3264 ft 14 kts 15°
2026-04-20 23:09 33.67398 -101.83202 3264 ft 5 kts 90°
2026-04-20 23:10 33.67399 -101.83134 3263 ft 11 kts 88°
2026-04-20 23:10 33.67399 -101.83022 3261 ft 15 kts 91°
2026-04-20 23:10 33.67398 -101.82888 3258 ft 16 kts 89°
2026-04-20 23:10 33.67400 -101.82774 3259 ft 6 kts 90°
2026-04-20 23:11 33.67419 -101.82710 3260 ft 9 kts 33°
2026-04-20 23:11 33.67541 -101.82702 3259 ft 20 kts 360°
2026-04-20 23:11 33.67694 -101.82704 3261 ft 22 kts 359°
2026-04-20 23:11 33.67840 -101.82704 3264 ft 19 kts
2026-04-20 23:12 33.67972 -101.82707 3264 ft 18 kts 359°
2026-04-20 23:12 33.68098 -101.82711 3269 ft 16 kts 345°
2026-04-20 23:12 33.68132 -101.82795 3268 ft 6 kts 267°
2026-04-20 23:12 33.68132 -101.82804 3268 ft 0 kts 267°
2026-04-20 23:14 33.68129 -101.82844 3267 ft 12 kts 259°
2026-04-20 23:14 33.68081 -101.82900 3267 ft 6 kts 193°
2026-04-20 23:15 33.67992 -101.82903 3266 ft 36 kts 179°
2026-04-20 23:15 33.67486 -101.82903 3260 ft 107 kts 180°
2026-04-20 23:15 33.66700 -101.82878 3814 ft 113 kts 175°
2026-04-20 23:15 33.65886 -101.82793 4456 ft 126 kts 171°
2026-04-20 23:16 33.64921 -101.82552 4918 ft 148 kts 166°
2026-04-20 23:16 33.63936 -101.82344 5799 ft 143 kts 164°
2026-04-20 23:16 33.63252 -101.81436 6466 ft 165 kts 108°
2026-04-20 23:16 33.63499 -101.80042 7095 ft 185 kts 60°
2026-04-20 23:17 33.64511 -101.79046 7685 ft 191 kts 37°
2026-04-20 23:17 33.65583 -101.78086 8369 ft 192 kts 40°
2026-04-20 23:17 33.66280 -101.77404 8780 ft 195 kts 39°
2026-04-20 23:17 33.67664 -101.75950 9669 ft 199 kts 44°
2026-04-20 23:18 33.68291 -101.75160 10172 ft 196 kts 47°
2026-04-20 23:18 33.69170 -101.73867 10711 ft 203 kts 53°
2026-04-20 23:18 33.69949 -101.72460 11345 ft 202 kts 57°
2026-04-20 23:18 33.70654 -101.71007 11979 ft 202 kts 60°
2026-04-20 23:19 33.71332 -101.69527 12590 ft 203 kts 60°
2026-04-20 23:19 33.72010 -101.68032 13193 ft 204 kts 60°
2026-04-20 23:19 33.72684 -101.66555 13846 ft 203 kts 60°
2026-04-20 23:19 33.73372 -101.65073 14364 ft 205 kts 59°
2026-04-20 23:20 33.74084 -101.63580 14879 ft 207 kts 59°
2026-04-20 23:20 33.74800 -101.62071 15353 ft 212 kts 59°
2026-04-20 23:20 33.75536 -101.60520 15756 ft 216 kts 60°
2026-04-20 23:20 33.76272 -101.58970 16369 ft 215 kts 60°
2026-04-20 23:21 33.77028 -101.57384 16948 ft 220 kts 60°
2026-04-20 23:21 33.77792 -101.55766 17541 ft 223 kts 60°
2026-04-20 23:21 33.78560 -101.54137 18171 ft 225 kts 60°
2026-04-20 23:21 33.79351 -101.52481 18671 ft 230 kts 60°
2026-04-20 23:22 33.80174 -101.50761 18895 ft 249 kts 60°
2026-04-20 23:22 33.81069 -101.48877 19038 ft 267 kts 60°
2026-04-20 23:22 33.82021 -101.46871 19102 ft 284 kts 60°
2026-04-20 23:22 33.83022 -101.44759 19146 ft 297 kts 60°
2026-04-20 23:23 33.84062 -101.42563 19164 ft 308 kts 60°
2026-04-20 23:23 33.85136 -101.40292 19167 ft 316 kts 60°
2026-04-20 23:23 33.86233 -101.37973 19173 ft 322 kts 60°
2026-04-20 23:23 33.87344 -101.35618 19174 ft 326 kts 60°
2026-04-20 23:24 33.88469 -101.33236 19176 ft 329 kts 60°
2026-04-20 23:24 33.89600 -101.30835 19187 ft 331 kts 60°
2026-04-20 23:24 33.90737 -101.28415 19173 ft 332 kts 60°
2026-04-20 23:24 33.91874 -101.25997 19177 ft 333 kts 60°
2026-04-20 23:25 33.93018 -101.23568 19176 ft 334 kts 60°
2026-04-20 23:25 33.94162 -101.21134 19177 ft 334 kts 60°
2026-04-20 23:25 33.95304 -101.18701 19177 ft 334 kts 60°
2026-04-20 23:25 33.96433 -101.16294 19177 ft 334 kts 60°
2026-04-20 23:26 33.97577 -101.13851 19179 ft 335 kts 60°
2026-04-20 23:26 33.98720 -101.11410 19176 ft 335 kts 60°
2026-04-20 23:26 33.99866 -101.08965 19180 ft 335 kts 60°
2026-04-20 23:26 34.01011 -101.06519 19180 ft 335 kts 60°
2026-04-20 23:27 34.02154 -101.04075 19176 ft 335 kts 60°
2026-04-20 23:27 34.03297 -101.01627 19178 ft 335 kts 60°
2026-04-20 23:27 34.04441 -100.99177 19175 ft 335 kts 60°
2026-04-20 23:27 34.05582 -100.96729 19173 ft 335 kts 60°
2026-04-20 23:28 34.06723 -100.94281 19177 ft 335 kts 60°
2026-04-20 23:28 34.07865 -100.91833 19178 ft 335 kts 60°
2026-04-20 23:28 34.09006 -100.89385 19177 ft 335 kts 60°
2026-04-20 23:28 34.10144 -100.86936 19177 ft 335 kts 60°
2026-04-20 23:29 34.11285 -100.84481 19177 ft 335 kts 60°
2026-04-20 23:29 34.12422 -100.82033 19177 ft 335 kts 60°
2026-04-20 23:29 34.13560 -100.79579 19179 ft 335 kts 60°
2026-04-20 23:29 34.14699 -100.77126 19179 ft 335 kts 60°
2026-04-20 23:30 34.15839 -100.74666 19179 ft 335 kts 60°
2026-04-20 23:30 34.16977 -100.72213 19177 ft 335 kts 60°
2026-04-20 23:30 34.18115 -100.69754 19175 ft 335 kts 60°
2026-04-20 23:30 34.19175 -100.67464 19176 ft 335 kts 60°
2026-04-20 23:31 34.20237 -100.65166 19177 ft 335 kts 60°
2026-04-20 23:31 34.21343 -100.62770 19177 ft 335 kts 60°
2026-04-20 23:31 34.22481 -100.60307 19178 ft 335 kts 60°
2026-04-20 23:31 34.23619 -100.57841 19179 ft 335 kts 60°
2026-04-20 23:32 34.24754 -100.55377 19171 ft 335 kts 60°
2026-04-20 23:32 34.25885 -100.52920 19174 ft 335 kts 60°
2026-04-20 23:32 34.27017 -100.50462 19175 ft 334 kts 60°
2026-04-20 23:32 34.28151 -100.48001 19176 ft 334 kts 60°
2026-04-20 23:33 34.29279 -100.45543 19176 ft 334 kts 60°
2026-04-20 23:33 34.30406 -100.43086 19175 ft 334 kts 60°
2026-04-20 23:33 34.31534 -100.40636 19175 ft 333 kts 60°
2026-04-20 23:33 34.32648 -100.38212 19176 ft 334 kts 60°
2026-04-20 23:34 34.33772 -100.35764 19176 ft 333 kts 60°
2026-04-20 23:34 34.34898 -100.33301 19175 ft 334 kts 60°
2026-04-20 23:34 34.35988 -100.30830 19191 ft 330 kts 66°
2026-04-20 23:34 34.36428 -100.28119 19191 ft 330 kts 89°
2026-04-20 23:35 34.36273 -100.25360 19192 ft 329 kts 102°
2026-04-20 23:35 34.35027 -100.20029 19193 ft 330 kts 108°
2026-04-20 23:35 34.34368 -100.17359 19192 ft 332 kts 108°
2026-04-20 23:36 34.33757 -100.14671 19188 ft 332 kts 107°
2026-04-20 23:36 34.33177 -100.11972 19187 ft 331 kts 106°
2026-04-20 23:36 34.32598 -100.09285 19184 ft 331 kts 107°
2026-04-20 23:36 34.32026 -100.06588 19183 ft 331 kts 107°
2026-04-20 23:37 34.31465 -100.03918 19186 ft 331 kts 106°
2026-04-20 23:37 34.30878 -100.01228 19184 ft 331 kts 107°
2026-04-20 23:37 34.30278 -99.98505 19184 ft 330 kts 107°
2026-04-20 23:37 34.29687 -99.95861 19182 ft 330 kts 108°
2026-04-20 23:38 34.29077 -99.93146 19183 ft 330 kts 108°
2026-04-20 23:38 34.28485 -99.90502 19181 ft 331 kts 107°
2026-04-20 23:38 34.27889 -99.87819 19182 ft 330 kts 107°
2026-04-20 23:38 34.27295 -99.85136 19182 ft 330 kts 106°
2026-04-20 23:39 34.26701 -99.82451 19179 ft 330 kts 107°
2026-04-20 23:39 34.26114 -99.79770 19180 ft 330 kts 106°
2026-04-20 23:39 34.25522 -99.77089 19180 ft 330 kts 107°
2026-04-20 23:39 34.24927 -99.74410 19181 ft 330 kts 107°
2026-04-20 23:40 34.24326 -99.71731 19184 ft 330 kts 107°
2026-04-20 23:40 34.23722 -99.69046 19183 ft 329 kts 107°
2026-04-20 23:40 34.23131 -99.66372 19187 ft 330 kts 106°
2026-04-20 23:40 34.22538 -99.63697 19186 ft 330 kts 107°
2026-04-20 23:41 34.21943 -99.61017 19189 ft 330 kts 108°
2026-04-20 23:41 34.21337 -99.58341 19186 ft 330 kts 107°
2026-04-20 23:41 34.20732 -99.55662 19187 ft 330 kts 107°
2026-04-20 23:41 34.20138 -99.53024 19187 ft 330 kts 107°
2026-04-20 23:42 34.19548 -99.50348 19187 ft 330 kts 107°
2026-04-20 23:42 34.18956 -99.47672 19185 ft 331 kts 107°
2026-04-20 23:42 34.18362 -99.44982 19182 ft 331 kts 107°
2026-04-20 23:42 34.17763 -99.42301 19184 ft 330 kts 107°
2026-04-20 23:43 34.17153 -99.39628 19190 ft 330 kts 107°
2026-04-20 23:43 34.16539 -99.36960 19192 ft 330 kts 108°
2026-04-20 23:43 34.15923 -99.34284 19188 ft 331 kts 107°
2026-04-20 23:43 34.15317 -99.31602 19188 ft 331 kts 107°
2026-04-20 23:44 34.14709 -99.28926 19188 ft 331 kts 107°
2026-04-20 23:44 34.14101 -99.26247 19190 ft 330 kts 107°
2026-04-20 23:44 34.13502 -99.23573 19189 ft 330 kts 107°
2026-04-20 23:44 34.12901 -99.20900 19183 ft 330 kts 107°
2026-04-20 23:45 34.12303 -99.18224 19187 ft 330 kts 107°
2026-04-20 23:45 34.11710 -99.15586 19188 ft 330 kts 107°
2026-04-20 23:45 34.11104 -99.12921 19189 ft 330 kts 107°
2026-04-20 23:45 34.10496 -99.10257 19189 ft 329 kts 107°
2026-04-20 23:46 34.09885 -99.07592 19189 ft 329 kts 107°
2026-04-20 23:46 34.09263 -99.04929 19190 ft 330 kts 107°
2026-04-20 23:46 34.08636 -99.02263 19192 ft 330 kts 107°
2026-04-20 23:46 34.08008 -98.99597 19193 ft 330 kts 107°
2026-04-20 23:47 34.07392 -98.96934 19189 ft 329 kts 107°
2026-04-20 23:47 34.06784 -98.94275 19191 ft 329 kts 107°
2026-04-20 23:47 34.06170 -98.91612 19197 ft 330 kts 107°
2026-04-20 23:47 34.05553 -98.88942 19199 ft 330 kts 107°
2026-04-20 23:48 34.04939 -98.86280 19206 ft 330 kts 107°
2026-04-20 23:48 34.04325 -98.83608 19208 ft 329 kts 107°
2026-04-20 23:48 34.03712 -98.80946 19208 ft 329 kts 107°
2026-04-20 23:48 34.03106 -98.78283 19211 ft 329 kts 107°
2026-04-20 23:49 34.02513 -98.75649 19215 ft 330 kts 107°
2026-04-20 23:49 34.01901 -98.72984 19217 ft 330 kts 107°
2026-04-20 23:49 34.01281 -98.70319 19212 ft 330 kts 107°
2026-04-20 23:49 34.00656 -98.67668 19217 ft 329 kts 107°
2026-04-20 23:50 34.00040 -98.65001 19216 ft 329 kts 106°
2026-04-20 23:50 33.99426 -98.62347 19217 ft 330 kts 107°
2026-04-20 23:50 33.98787 -98.59691 19218 ft 327 kts 111°
2026-04-20 23:50 33.97721 -98.57287 19221 ft 326 kts 125°
2026-04-20 23:51 33.96381 -98.55081 19222 ft 326 kts 129°
2026-04-20 23:51 33.95007 -98.52907 19221 ft 326 kts 128°
2026-04-20 23:51 33.93671 -98.50704 19221 ft 326 kts 127°
2026-04-20 23:51 33.92382 -98.48464 19239 ft 325 kts 126°
2026-04-20 23:52 33.91102 -98.46213 19237 ft 326 kts 127°
2026-04-20 23:52 33.89819 -98.43961 19238 ft 327 kts 127°
2026-04-20 23:52 33.88525 -98.41714 19220 ft 326 kts 127°
2026-04-20 23:52 33.87222 -98.39481 19218 ft 327 kts 127°
2026-04-20 23:53 33.85921 -98.37231 19216 ft 327 kts 127°
2026-04-20 23:53 33.84633 -98.35016 19218 ft 327 kts 127°
2026-04-20 23:53 33.83326 -98.32776 19219 ft 327 kts 127°
2026-04-20 23:53 33.82026 -98.30541 19221 ft 327 kts 126°
2026-04-20 23:54 33.80725 -98.28300 19219 ft 326 kts 126°
2026-04-20 23:54 33.79424 -98.26071 19219 ft 326 kts 126°
2026-04-20 23:54 33.78125 -98.23844 19219 ft 326 kts 126°
2026-04-20 23:54 33.76822 -98.21615 19219 ft 325 kts 127°
2026-04-20 23:55 33.75520 -98.19390 19224 ft 325 kts 127°
2026-04-20 23:55 33.74218 -98.17160 19222 ft 325 kts 127°
2026-04-20 23:55 33.72915 -98.14938 19221 ft 325 kts 127°
2026-04-20 23:55 33.71615 -98.12714 19222 ft 325 kts 127°
2026-04-20 23:56 33.70304 -98.10484 19225 ft 326 kts 127°
2026-04-20 23:56 33.68996 -98.08253 19225 ft 327 kts 127°
2026-04-20 23:56 33.67684 -98.06018 19222 ft 327 kts 127°
2026-04-20 23:56 33.66374 -98.03786 19226 ft 327 kts 127°
2026-04-20 23:57 33.65065 -98.01555 19226 ft 327 kts 127°
2026-04-20 23:57 33.63771 -97.99358 19227 ft 326 kts 127°
2026-04-20 23:57 33.62466 -97.97136 19227 ft 326 kts 127°
2026-04-20 23:57 33.61154 -97.94911 19228 ft 326 kts 127°
2026-04-20 23:58 33.59845 -97.92689 19228 ft 326 kts 127°
2026-04-20 23:58 33.58532 -97.90456 19226 ft 327 kts 127°
2026-04-20 23:58 33.57218 -97.88231 19233 ft 327 kts 127°
2026-04-20 23:58 33.55910 -97.86009 19233 ft 327 kts 127°
2026-04-20 23:59 33.54573 -97.83816 19230 ft 322 kts 133°
2026-04-20 23:59 33.52813 -97.82221 19236 ft 317 kts 153°
2026-04-20 23:59 33.50825 -97.81102 19236 ft 315 kts 163°
2026-04-20 23:59 33.48716 -97.80380 19240 ft 316 kts 169°
2026-04-21 00:00 33.46572 -97.79786 19240 ft 316 kts 170°
2026-04-21 00:00 33.44429 -97.79179 19246 ft 317 kts 169°
2026-04-21 00:00 33.42298 -97.78500 19242 ft 318 kts 168°
2026-04-21 00:00 33.40167 -97.77791 19245 ft 318 kts 168°
2026-04-21 00:01 33.38029 -97.77095 19248 ft 318 kts 168°
2026-04-21 00:01 33.35920 -97.76407 19248 ft 319 kts 168°
2026-04-21 00:01 33.33781 -97.75710 19249 ft 319 kts 168°
2026-04-21 00:01 33.31639 -97.75013 19251 ft 319 kts 168°
2026-04-21 00:02 33.29500 -97.74320 19267 ft 319 kts 168°
2026-04-21 00:02 33.27351 -97.73622 19270 ft 319 kts 167°
2026-04-21 00:02 33.25345 -97.72513 19270 ft 318 kts 150°
2026-04-21 00:02 33.23355 -97.71514 19268 ft 309 kts 174°
2026-04-21 00:03 33.21218 -97.71660 18870 ft 316 kts 199°
2026-04-21 00:03 33.19296 -97.72987 18277 ft 324 kts 225°
2026-04-21 00:03 33.17846 -97.75007 17863 ft 320 kts 232°
2026-04-21 00:03 33.16400 -97.76969 17467 ft 308 kts 229°
2026-04-21 00:04 33.14833 -97.78663 17056 ft 299 kts 222°
2026-04-21 00:04 33.13152 -97.80095 16659 ft 296 kts 214°
2026-04-21 00:04 33.11330 -97.81198 16259 ft 293 kts 206°
2026-04-21 00:04 33.09440 -97.82084 15870 ft 290 kts 203°
2026-04-21 00:05 33.07558 -97.82919 15485 ft 288 kts 203°
2026-04-21 00:05 33.05692 -97.83762 15103 ft 286 kts 204°
2026-04-21 00:05 33.03841 -97.84639 14722 ft 285 kts 205°
2026-04-21 00:05 33.02016 -97.85529 14426 ft 282 kts 205°
2026-04-21 00:06 33.00231 -97.86393 14348 ft 272 kts 205°
2026-04-21 00:06 32.99082 -97.86943 14318 ft 266 kts 205°
2026-04-21 00:06 32.96848 -97.88023 14286 ft 257 kts 205°
2026-04-21 00:06 32.95207 -97.88817 14272 ft 252 kts 205°
2026-04-21 00:07 32.93595 -97.89594 14270 ft 248 kts 205°
2026-04-21 00:07 32.92011 -97.90366 14264 ft 245 kts 205°
2026-04-21 00:07 32.90440 -97.91128 14253 ft 243 kts 205°
2026-04-21 00:07 32.88880 -97.91874 14233 ft 241 kts 206°
2026-04-21 00:08 32.87831 -97.92379 14238 ft 240 kts 206°
2026-04-21 00:08 32.86289 -97.93136 14239 ft 239 kts 206°
2026-04-21 00:08 32.84751 -97.93897 14235 ft 239 kts 206°
2026-04-21 00:08 32.83215 -97.94647 14237 ft 239 kts 206°
2026-04-21 00:09 32.81680 -97.95391 14238 ft 238 kts 206°
2026-04-21 00:09 32.80135 -97.96094 14234 ft 237 kts 198°
2026-04-21 00:09 32.77978 -97.95683 14230 ft 251 kts 150°
2026-04-21 00:09 32.77113 -97.94729 14241 ft 255 kts 128°
2026-04-21 00:10 32.76502 -97.92756 14241 ft 258 kts 94°
2026-04-21 00:10 32.76836 -97.90716 14239 ft 256 kts 61°
2026-04-21 00:10 32.78010 -97.89185 14240 ft 250 kts 27°
2026-04-21 00:10 32.79631 -97.88649 14246 ft 239 kts 358°
2026-04-21 00:11 32.81286 -97.88653 14244 ft 238 kts 355°
2026-04-21 00:11 32.82953 -97.88655 14242 ft 240 kts 358°
2026-04-21 00:11 32.84625 -97.88487 14235 ft 243 kts
2026-04-21 00:11 32.86289 -97.88110 14256 ft 244 kts 10°
2026-04-21 00:12 32.87915 -97.87489 14260 ft 246 kts 17°
2026-04-21 00:12 32.89492 -97.86685 14267 ft 247 kts 22°
2026-04-21 00:12 32.90979 -97.85643 14268 ft 249 kts 31°
2026-04-21 00:12 32.92359 -97.84371 14277 ft 252 kts 37°
2026-04-21 00:13 32.93671 -97.82980 14279 ft 253 kts 40°
2026-04-21 00:13 32.94971 -97.81574 14278 ft 253 kts 39°
2026-04-21 00:13 32.96271 -97.80172 14275 ft 253 kts 40°
2026-04-21 00:13 32.97590 -97.78767 14278 ft 257 kts 39°
2026-04-21 00:14 32.98923 -97.77375 14270 ft 259 kts 38°
2026-04-21 00:14 33.00340 -97.75914 13923 ft 273 kts 38°
2026-04-21 00:14 33.01805 -97.74398 13536 ft 284 kts 39°
2026-04-21 00:14 33.03294 -97.72857 13156 ft 291 kts 39°
2026-04-21 00:15 33.04829 -97.71266 12764 ft 292 kts 40°
2026-04-21 00:15 33.06361 -97.69678 12387 ft 291 kts 40°
2026-04-21 00:15 33.07889 -97.68086 12012 ft 291 kts 40°
2026-04-21 00:15 33.09416 -97.66505 11637 ft 290 kts 40°
2026-04-21 00:16 33.10939 -97.64922 11261 ft 290 kts 41°
2026-04-21 00:16 33.12456 -97.63344 10906 ft 290 kts 41°
2026-04-21 00:16 33.13983 -97.61773 10555 ft 289 kts 41°
2026-04-21 00:16 33.15512 -97.60221 10200 ft 288 kts 41°
2026-04-21 00:17 33.17031 -97.58663 9819 ft 288 kts 42°
2026-04-21 00:17 33.18430 -97.57012 9417 ft 280 kts 57°
2026-04-21 00:17 33.19170 -97.54900 9036 ft 275 kts 76°
2026-04-21 00:17 33.19528 -97.52661 8661 ft 274 kts 87°
2026-04-21 00:18 33.19590 -97.50402 8296 ft 272 kts 94°
2026-04-21 00:18 33.19537 -97.48141 7916 ft 272 kts 94°
2026-04-21 00:18 33.19467 -97.45886 7553 ft 272 kts 93°
2026-04-21 00:18 33.19434 -97.43632 7190 ft 271 kts 92°
2026-04-21 00:19 33.19440 -97.41382 6836 ft 270 kts 91°
2026-04-21 00:19 33.19439 -97.39173 6473 ft 266 kts 93°
2026-04-21 00:19 33.18903 -97.37122 6085 ft 260 kts 124°
2026-04-21 00:19 33.17554 -97.35817 6034 ft 244 kts 158°
2026-04-21 00:20 33.15936 -97.35314 5796 ft 242 kts 170°
2026-04-21 00:20 33.14294 -97.35033 5427 ft 229 kts 172°
2026-04-21 00:20 33.12769 -97.34798 5059 ft 212 kts 172°
2026-04-21 00:20 33.11361 -97.34571 4678 ft 193 kts 171°
2026-04-21 00:21 33.10130 -97.34338 4494 ft 166 kts 170°
2026-04-21 00:21 33.09019 -97.34117 4102 ft 160 kts 171°
2026-04-21 00:21 33.07970 -97.33895 3806 ft 150 kts 170°
2026-04-21 00:21 33.06997 -97.33687 3458 ft 131 kts 170°
2026-04-21 00:22 33.06161 -97.33505 3101 ft 113 kts 170°
2026-04-21 00:22 33.05439 -97.33338 2786 ft 100 kts 171°
2026-04-21 00:22 33.04783 -97.33199 2508 ft 92 kts 171°
2026-04-21 00:22 33.04175 -97.33066 2243 ft 86 kts 171°
2026-04-21 00:23 33.03596 -97.32948 2013 ft 88 kts 170°
2026-04-21 00:23 33.02956 -97.32808 1785 ft 95 kts 170°
2026-04-21 00:23 33.02291 -97.32681 1529 ft 99 kts 172°
2026-04-21 00:23 33.01606 -97.32558 1231 ft 99 kts 171°
2026-04-21 00:24 33.00952 -97.32453 947 ft 90 kts 168°
2026-04-21 00:24 33.00369 -97.32317 755 ft 82 kts 168°
2026-04-21 00:24 32.99899 -97.32217 723 ft 38 kts 171°
2026-04-21 00:24 32.99836 -97.32204 722 ft 1 kts 170°
2026-04-21 00:25 32.99790 -97.32194 721 ft 2 kts 168°
2026-04-21 00:25 32.99757 -97.32174 719 ft 3 kts 129°
2026-04-21 00:25 32.99750 -97.32143 721 ft 5 kts 90°
2026-04-21 00:25 32.99756 -97.32100 717 ft 1 kts 80°
2026-04-21 00:26 32.99759 -97.32079 717 ft 0 kts 80°
2026-04-21 00:33 32.99761 -97.32069 717 ft 4 kts 79°
2026-04-21 00:33 32.99768 -97.32017 719 ft 8 kts 81°
2026-04-21 00:34 32.99780 -97.31938 722 ft 11 kts 84°
2026-04-21 00:34 32.99764 -97.31873 721 ft 6 kts 134°
2026-04-21 00:34 32.99717 -97.31851 720 ft 10 kts 169°
2026-04-21 00:34 32.99645 -97.31837 718 ft 12 kts 170°
2026-04-21 00:35 32.99562 -97.31820 717 ft 12 kts 169°
2026-04-21 00:35 32.99486 -97.31803 717 ft 10 kts 171°
2026-04-21 00:35 32.99414 -97.31789 715 ft 11 kts 171°
2026-04-21 00:35 32.99333 -97.31772 715 ft 13 kts 171°
2026-04-21 00:36 32.99260 -97.31728 710 ft 11 kts 110°
2026-04-21 00:36 32.99264 -97.31644 713 ft 10 kts 80°
2026-04-21 00:36 32.99281 -97.31566 713 ft 10 kts 58°
2026-04-21 00:36 32.99362 -97.31552 714 ft 16 kts 350°
2026-04-21 00:37 32.99477 -97.31577 714 ft 13 kts 350°
2026-04-21 00:37 32.99512 -97.31589 717 ft 5 kts 316°
2026-04-21 00:37 32.99512 -97.31650 716 ft 6 kts 256°
2026-04-21 00:37 32.99508 -97.31667 716 ft 0 kts 255°